This is the latest recevied weather packets stored in our database for station/object VR2R-13. If no packets are shown the sender has not sent any weather packets the latest 1 day(s).
| Time | Temp. | Humidity | Pressure | Rain* | Wind** | Luminosity | Snow |
|---|---|---|---|---|---|---|---|
| 1778023428 | 16.11° C | 97% | 914.4 hPa | 0 mm | 3.58 m/s, 72° | - | - |
| 1778023367 | 16.11° C | 97% | 914.4 hPa | 0 mm | 3.58 m/s, 75° | - | - |
| 1778023069 | 16.11° C | 97% | 914.3 hPa | 0 mm | 3.58 m/s, 71° | - | - |
| 1778023067 | 16.11° C | 97% | 914.4 hPa | 0 mm | 3.58 m/s, 70° | - | - |
| 1778022889 | 16.11° C | 97% | 914.3 hPa | 0 mm | 3.13 m/s, 76° | - | - |
| 1778022888 | 16.11° C | 97% | 914.3 hPa | 0 mm | 2.68 m/s, 54° | - | - |
| 1778022767 | 16.11° C | 97% | 914.4 hPa | 0 mm | 3.13 m/s, 82° | - | - |
| 1778022708 | 16.11° C | 97% | 914.3 hPa | 0 mm | 3.13 m/s, 76° | - | - |
| 1778022467 | 16.11° C | 97% | 914.3 hPa | 0 mm | 3.13 m/s, 57° | - | - |
| 1778022348 | 16.11° C | 97% | 914.3 hPa | 0 mm | 2.68 m/s, 54° | - | - |
| 1778022167 | 16.11° C | 97% | 914.3 hPa | 0 mm | 2.24 m/s, 73° | - | - |
| 1778021988 | 16.11° C | 97% | 914.2 hPa | 0 mm | 3.13 m/s, 94° | - | - |
| 1778021867 | 16.11° C | 97% | 914.3 hPa | 0 mm | 2.24 m/s, 72° | - | - |
| 1778021628 | 16.11° C | 97% | 914.3 hPa | 0 mm | 1.79 m/s, 66° | - | - |
| 1778021567 | 16.11° C | 97% | 914.3 hPa | 0 mm | 2.24 m/s, 64° | - | - |
| 1778021269 | 16.11° C | 97% | 914.2 hPa | 0 mm | 2.68 m/s, 63° | - | - |
| 1778021267 | 16.11° C | 97% | 914.2 hPa | 0 mm | 2.68 m/s, 60° | - | - |
| 1778020967 | 16.11° C | 97% | 914.1 hPa | 0 mm | 1.79 m/s, 38° | - | - |
| 1778020908 | 16.11° C | 97% | 914.1 hPa | 0 mm | 1.79 m/s, 61° | - | - |
| 1778020667 | 16.11° C | 97% | 914.1 hPa | 0 mm | 2.68 m/s, 74° | - | - |
| 1778020548 | 16.11° C | 97% | 914.1 hPa | 0 mm | 0 m/s | - | - |
| 1778020367 | 16.11° C | 97% | 914 hPa | 0 mm | 2.68 m/s, 83° | - | - |
| 1778020188 | 16.11° C | 97% | 914 hPa | 0 mm | 2.24 m/s, 96° | - | - |
| 1778020067 | 16.11° C | 97% | 914 hPa | 0 mm | 2.68 m/s, 71° | - | - |
| 1778019828 | 16.11° C | 97% | 914 hPa | 0 mm | 0.45 m/s, 81° | - | - |
* Rain latest hour (hover to see other rain measurements)
** Current wind speed in m/s (hover to see current wind gust speed)